User: anonymous   Login
Location: Caltech
(34.1382°N, 118.1253°W)
Time: 06:19:32
(UTC-07:00)
Language:

BREEZE M DEB (TANK) - Orbit

View from above orbital plane
View from above orbital plane
View from above satellite
View from above satellite

Ground track
Ground track

The orbit data is extracted from the following two-line orbital elements,

1 33437U 08057B   15185.46086115  .00001493  00000-0  26907-3 0  9995
2 33437 049.5516 135.9020 5018717 277.5028 321.4975 05.57930854133927
Epoch (UTC): 04 July 2015 11:03:38
Eccentricity: 0.5018717
inclination: 49.5516°
perigee height: 311 km
apogee height: 13789 km
right ascension of ascending node: 135.9020°
argument of perigee: 277.5028°
revolutions per day: 5.57930854
mean anomaly at epoch: 321.4975°
orbit number at epoch: 13392

The dashed part of the orbit path shows where the satellite is in the earth's shadow,  

DLR